| time (UTC) | temp F | wind direction | speed knots | gust knots | rain 1hr in | rain 24hr in | rain mn in | humidity % | barometer mb |
| 20260505024502 | 57 | 210 | 0.0 | 0.0 | 0.00 | 0.00 | 0.00 | 71 | 1004.0 |
| 20260505023001 | 57 | 210 | 0.0 | 0.0 | 0.00 | 0.00 | 0.00 | 72 | 1003.9 |
| 20260505021501 | 58 | 210 | 0.0 | 0.0 | 0.00 | 0.00 | 0.00 | 70 | 1003.8 |
| 20260505020008 | 58 | 210 | 0.0 | 0.9 | 0.00 | 0.00 | 0.00 | 68 | 1004.0 |
| 20260505014501 | 59 | 210 | 0.0 | 0.9 | 0.00 | 0.00 | 0.00 | 64 | 1004.1 |
| 20260505011501 | 60 | 210 | 0.0 | 0.0 | 0.00 | 0.00 | 0.00 | 59 | 1004.0 |
| 20260505010007 | 61 | 210 | 0.0 | 0.9 | 0.00 | 0.00 | 0.00 | 58 | 1003.9 |
| 20260505003001 | 65 | 210 | 0.0 | 0.9 | 0.00 | 0.00 | 0.00 | 51 | 1004.0 |
| 20260505001501 | 67 | 210 | 0.0 | 1.7 | 0.00 | 0.00 | 0.00 | 47 | 1004.0 |
| 20260504234501 | 69 | 205 | 1.7 | 3.5 | 0.00 | 0.00 | 0.00 | 44 | 1004.0 |
| 20260504233002 | 70 | 271 | 0.9 | 3.5 | 0.00 | 0.00 | 0.00 | 44 | 1004.0 |
| 20260504230005 | 72 | 267 | 2.6 | 6.1 | 0.00 | 0.00 | 0.00 | 40 | 1003.9 |
| 20260504224502 | 72 | 325 | 5.2 | 8.7 | 0.00 | 0.00 | 0.00 | 39 | 1003.9 |
| 20260504223001 | 73 | 261 | 4.3 | 9.6 | 0.00 | 0.00 | 0.00 | 37 | 1003.7 |
| 20260504221502 | 74 | 308 | 3.5 | 7.8 | 0.00 | 0.00 | 0.00 | 39 | 1003.6 |
| 20260504220007 | 74 | 289 | 3.5 | 6.1 | 0.00 | 0.00 | 0.00 | 38 | 1003.6 |
| 20260504214500 | 74 | 266 | 3.5 | 10.4 | 0.00 | 0.00 | 0.00 | 38 | 1003.7 |
| 20260504213000 | 74 | 183 | 4.3 | 9.6 | 0.00 | 0.00 | 0.00 | 39 | 1004.0 |
| 20260504210004 | 74 | 251 | 5.2 | 13.9 | 0.00 | 0.00 | 0.00 | 38 | 1003.8 |
| 20260504204500 | 74 | 215 | 5.2 | 8.7 | 0.00 | 0.00 | 0.00 | 41 | 1003.9 |
| 20260504203000 | 73 | 225 | 6.1 | 12.2 | 0.00 | 0.00 | 0.00 | 41 | 1004.1 |
| 20260504201500 | 74 | 277 | 5.2 | 9.6 | 0.00 | 0.00 | 0.00 | 41 | 1004.2 |
| 20260504194500 | 73 | 223 | 6.1 | 15.6 | 0.00 | 0.00 | 0.00 | 41 | 1004.7 |
| 20260504193000 | 73 | 229 | 7.0 | 14.8 | 0.00 | 0.00 | 0.00 | 42 | 1004.9 |
| 20260504191500 | 73 | 234 | 6.1 | 13.0 | 0.00 | 0.00 | 0.00 | 43 | 1005.1 |
| 20260504190004 | 72 | 166 | 6.1 | 9.6 | 0.00 | 0.00 | 0.00 | 46 | 1005.4 |
| 20260504184500 | 72 | 250 | 6.1 | 11.3 | 0.00 | 0.00 | 0.00 | 45 | 1005.4 |
| 20260504183000 | 71 | 250 | 6.1 | 11.3 | 0.00 | 0.00 | 0.00 | 44 | 1005.7 |
| 20260504181500 | 71 | 271 | 7.0 | 14.8 | 0.00 | 0.00 | 0.00 | 47 | 1005.8 |
| 20260504180003 | 70 | 185 | 7.8 | 14.8 | 0.00 | 0.00 | 0.00 | 46 | 1005.9 |
| 20260504174500 | 70 | 212 | 6.1 | 11.3 | 0.00 | 0.00 | 0.00 | 49 | 1006.0 |
| 20260504173000 | 69 | 229 | 5.2 | 11.3 | 0.00 | 0.00 | 0.00 | 51 | 1006.1 |
| 20260504171500 | 68 | 225 | 6.1 | 13.0 | 0.00 | 0.00 | 0.00 | 51 | 1006.3 |
| 20260504081459 | 51 | 205 | 3.5 | 7.0 | 0.00 | 0.00 | 0.00 | 60 | 1008.4 |
| 20260504050001 | 51 | 225 | 0.9 | 1.7 | 0.00 | 0.00 | 0.00 | 61 | 1009.7 |
| 20260504044459 | 52 | 196 | 1.7 | 3.5 | 0.00 | 0.00 | 0.00 | 60 | 1009.7 |
| 20260504040007 | 52 | 202 | 1.7 | 3.5 | 0.00 | 0.00 | 0.00 | 59 | 1009.9 |
| 20260504034501 | 52 | 177 | 1.7 | 3.5 | 0.00 | 0.00 | 0.00 | 59 | 1009.9 |
| 20260504030005 | 54 | 210 | 3.5 | 9.6 | 0.00 | 0.00 | 0.00 | 56 | 1009.9 |